[ hide orbit diagram ]
For accurate long-term ephemerides, please instead use our Horizons system.This orbit viewer was implemented using two-body methods, and hence should not be used for determining accurate long-term trajectories (over several years or decades) or planetary encounter circumstances.
Orbital Elements at Epoch 2459200.5 (2020-Dec-17.0) TDB
Reference: JPL 31 (heliocentric ecliptic J2000)
Element | Value | Uncertainty (1-sigma) | Units |
e | .09809721816328307 | 3.8919e-08 | |
a | 2.254725233267567 | 8.5475e-09 | au |
q | 2.033542960161459 | 8.7076e-08 | au |
i | 5.507986448189865 | 4.4447e-06 | deg |
node | 212.7481241810339 | 4.03e-05 | deg |
peri | 93.17398793934784 | 4.644e-05 | deg |
M | 230.6711870021178 | 2.4223e-05 | deg |
tp | 2459644.754315681499 (2022-Mar-06.25431568) | 8.3898e-05 | TDB |
period | 1236.627399092872 3.39 | 7.0319e-06 1.925e-08 | d yr |
n | .2911143649769347 | 1.6554e-09 | deg/d |
Q | 2.475907506373674 | 9.386e-09 | au |
|
| | Orbit Determination Parameters
Additional Information
|
[ show covariance matrix ]
Physical Parameter Table
Parameter |
Symbol |
Value |
Units |
Sigma |
Reference |
Notes |
absolute magnitude |
H |
15.08 |
|
n/a |
E2021B10 |
|
|
26259 Marzigliano | Discovered 1998 Aug. 17 by the Lincoln Laboratory Near-Earth Asteroid Research Team at Socorro. |
Gerard Marzigliano mentored a finalist in the 2010 Intel Science Talent Search (STS), a science competition for high school seniors. He teaches at the Division Avenue High School, Levittown, New York. |
NOTE: some special characters may not display properly (any characters within {} are an attempt to place the proper accent above a character) |
Reference: 20100228/MPCPages.arc | Last Updated: 2010-10-29 |
|
[ show close-approach data ]
|